Time,TemperatureF,DewpointF,PressureIn,WindDirection,WindDirectionDegrees,WindSpeedMPH,WindSpeedGustMPH,Humidity,HourlyPrecipIn,Conditions,Clouds,dailyrainin,SoftwareType,DateUTC
2013-03-13 00:00:00,61.2,59.2,30.04,North,-999,0.0,0.0,93,0.00,,,-99.99,WeatherLink 5.9.3,2013-03-12 13:00:00,
2013-03-13 00:06:00,61.0,59.3,30.03,SW,218,0.0,0.0,94,0.00,,,0.00,Wunderground v.1.15,2013-03-12 13:06:00,
2013-03-13 00:11:00,61.0,59.3,30.03,SW,219,0.0,0.0,94,0.00,,,0.00,Wunderground v.1.15,2013-03-12 13:11:00,
2013-03-13 00:16:00,61.0,59.3,30.03,SW,219,0.0,0.0,94,0.00,,,0.00,Wunderground v.1.15,2013-03-12 13:16:00,
2013-03-13 00:22:00,60.9,59.2,30.03,SW,218,0.0,0.0,94,0.00,,,0.00,Wunderground v.1.15,2013-03-12 13:22:00,
2013-03-13 00:27:00,60.7,59.0,30.02,SW,219,0.0,0.0,94,0.00,,,0.00,Wunderground v.1.15,2013-03-12 13:27:00,
2013-03-13 00:32:00,60.5,58.8,30.02,SW,218,0.0,0.0,94,0.00,,,0.00,Wunderground v.1.15,2013-03-12 13:32:00,
2013-03-13 00:38:00,60.3,58.6,30.02,SW,218,0.0,0.0,94,0.00,,,0.00,Wunderground v.1.15,2013-03-12 13:38:00,
2013-03-13 00:43:00,60.1,58.4,30.02,SW,218,0.0,0.0,94,0.00,,,0.00,Wunderground v.1.15,2013-03-12 13:43:00,
2013-03-13 00:49:00,59.9,58.2,30.02,SW,219,0.0,0.0,94,0.00,,,0.00,Wunderground v.1.15,2013-03-12 13:49:00,
2013-03-13 00:54:00,59.9,58.5,30.02,SW,218,0.0,0.0,95,0.00,,,0.00,Wunderground v.1.15,2013-03-12 13:54:00,
2013-03-13 00:59:00,60.0,58.6,30.02,SW,218,0.0,0.0,95,0.00,,,0.00,Wunderground v.1.15,2013-03-12 13:59:00,
2013-03-13 01:05:00,59.9,58.5,30.02,SW,219,0.0,0.0,95,0.00,,,0.00,Wunderground v.1.15,2013-03-12 14:05:00,
2013-03-13 01:10:00,60.0,58.6,30.02,North,-999,0.0,0.0,95,0.00,,,-99.99,WeatherLink 5.9.3,2013-03-12 14:10:00,
2013-03-13 01:17:00,59.5,58.1,30.01,SW,218,0.0,0.0,95,0.00,,,0.00,Wunderground v.1.15,2013-03-12 14:17:00,
2013-03-13 01:23:00,59.4,58.0,30.01,SW,219,0.0,0.0,95,0.00,,,0.00,Wunderground v.1.15,2013-03-12 14:23:00,
2013-03-13 01:29:00,59.5,58.1,30.01,SW,219,0.0,0.0,95,0.00,,,0.00,Wunderground v.1.15,2013-03-12 14:29:00,
2013-03-13 01:34:00,59.4,58.0,30.01,SW,219,0.0,0.0,95,0.00,,,0.00,Wunderground v.1.15,2013-03-12 14:34:00,
2013-03-13 01:39:00,59.2,57.8,30.01,SW,219,0.0,0.0,95,0.00,,,0.00,Wunderground v.1.15,2013-03-12 14:39:00,
2013-03-13 01:44:00,59.0,57.6,30.00,SW,219,0.0,0.0,95,0.00,,,0.00,Wunderground v.1.15,2013-03-12 14:44:00,
2013-03-13 01:50:00,59.2,57.8,30.00,North,-999,0.0,0.0,95,0.00,,,-99.99,WeatherLink 5.9.3,2013-03-12 14:50:00,
2013-03-13 01:57:00,59.3,57.9,30.00,SW,218,0.0,0.0,95,0.00,,,0.00,Wunderground v.1.15,2013-03-12 14:57:00,
2013-03-13 02:02:00,59.3,57.9,30.00,SW,219,0.0,0.0,95,0.00,,,0.00,Wunderground v.1.15,2013-03-12 15:02:00,
2013-03-13 02:07:00,59.5,58.4,30.00,SW,219,0.0,0.0,96,0.00,,,0.00,Wunderground v.1.15,2013-03-12 15:07:00,
2013-03-13 02:12:00,59.3,57.9,30.00,SW,219,0.0,0.0,95,0.00,,,0.00,Wunderground v.1.15,2013-03-12 15:12:00,
2013-03-13 02:17:00,59.3,57.9,30.00,SW,218,0.0,0.0,95,0.00,,,0.00,Wunderground v.1.15,2013-03-12 15:17:00,
2013-03-13 02:23:00,59.4,58.3,30.00,SW,219,0.0,0.0,96,0.00,,,0.00,Wunderground v.1.15,2013-03-12 15:23:00,
2013-03-13 02:28:00,59.4,58.3,29.99,SW,219,0.0,0.0,96,0.00,,,0.00,Wunderground v.1.15,2013-03-12 15:28:00,
2013-03-13 02:33:00,59.3,57.9,29.99,SW,219,0.0,0.0,95,0.00,,,0.00,Wunderground v.1.15,2013-03-12 15:33:00,
2013-03-13 02:38:00,59.1,57.7,29.99,SW,218,0.0,0.0,95,0.00,,,0.00,Wunderground v.1.15,2013-03-12 15:38:00,
2013-03-13 02:43:00,58.9,57.5,29.99,SW,219,0.0,0.0,95,0.00,,,0.00,Wunderground v.1.15,2013-03-12 15:43:00,
2013-03-13 02:48:00,58.7,57.3,29.99,SW,219,0.0,0.0,95,0.00,,,0.00,Wunderground v.1.15,2013-03-12 15:48:00,
2013-03-13 02:53:00,58.8,57.7,29.99,SW,218,0.0,0.0,96,0.00,,,0.00,Wunderground v.1.15,2013-03-12 15:53:00,
2013-03-13 02:58:00,58.7,57.3,29.98,SW,219,0.0,0.0,95,0.00,,,0.00,Wunderground v.1.15,2013-03-12 15:58:00,
2013-03-13 03:03:00,58.5,57.1,29.98,SW,218,0.0,0.0,95,0.00,,,0.00,Wunderground v.1.15,2013-03-12 16:03:00,
2013-03-13 03:08:00,58.5,57.4,29.98,SW,219,0.0,0.0,96,0.00,,,0.00,Wunderground v.1.15,2013-03-12 16:08:00,
2013-03-13 03:13:00,58.5,57.4,29.98,SW,218,0.0,0.0,96,0.00,,,0.00,Wunderground v.1.15,2013-03-12 16:13:00,
2013-03-13 03:18:00,58.8,57.7,29.98,SW,219,0.0,0.0,96,0.00,,,0.00,Wunderground v.1.15,2013-03-12 16:18:00,
2013-03-13 03:23:00,58.9,57.8,29.98,SW,219,0.0,0.0,96,0.00,,,0.00,Wunderground v.1.15,2013-03-12 16:23:00,
2013-03-13 03:28:00,58.9,57.8,29.97,SW,218,0.0,0.0,96,0.00,,,0.00,Wunderground v.1.15,2013-03-12 16:28:00,
2013-03-13 03:33:00,58.9,57.8,29.97,SW,219,0.0,0.0,96,0.00,,,0.00,Wunderground v.1.15,2013-03-12 16:33:00,
2013-03-13 03:38:00,58.9,57.8,29.97,SW,218,0.0,0.0,96,0.00,,,0.00,Wunderground v.1.15,2013-03-12 16:38:00,
2013-03-13 03:43:00,58.9,57.8,29.97,SW,219,0.0,0.0,96,0.00,,,0.00,Wunderground v.1.15,2013-03-12 16:43:00,
2013-03-13 03:48:00,58.7,57.6,29.97,SW,218,0.0,0.0,96,0.00,,,0.00,Wunderground v.1.15,2013-03-12 16:48:00,
2013-03-13 03:53:00,58.7,57.6,29.97,SW,218,0.0,1.0,96,0.00,,,0.00,Wunderground v.1.15,2013-03-12 16:53:00,
2013-03-13 03:58:00,58.7,57.6,29.97,SW,218,0.0,1.0,96,0.00,,,0.00,Wunderground v.1.15,2013-03-12 16:58:00,
2013-03-13 04:03:00,58.7,57.6,29.97,SW,219,0.0,0.0,96,0.00,,,0.00,Wunderground v.1.15,2013-03-12 17:03:00,
2013-03-13 04:08:00,58.5,57.4,29.97,SW,218,0.0,0.0,96,0.00,,,0.00,Wunderground v.1.15,2013-03-12 17:08:00,
2013-03-13 04:14:00,58.3,57.2,29.97,SW,219,0.0,0.0,96,0.00,,,0.00,Wunderground v.1.15,2013-03-12 17:14:00,
2013-03-13 04:19:00,58.1,57.0,29.97,SW,219,0.0,0.0,96,0.00,,,0.00,Wunderground v.1.15,2013-03-12 17:19:00,
2013-03-13 04:24:00,58.3,57.2,29.97,SW,219,0.0,0.0,96,0.00,,,0.00,Wunderground v.1.15,2013-03-12 17:24:00,
2013-03-13 04:29:00,58.4,57.3,29.97,SW,219,0.0,1.0,96,0.00,,,0.00,Wunderground v.1.15,2013-03-12 17:29:00,
2013-03-13 04:33:00,58.6,57.5,29.97,SW,227,0.0,0.0,96,0.00,,,0.00,Wunderground v.1.15,2013-03-12 17:33:00,
2013-03-13 04:38:00,58.6,57.5,29.97,SW,227,0.0,0.0,96,0.00,,,0.00,Wunderground v.1.15,2013-03-12 17:38:00,
2013-03-13 04:43:00,58.5,57.4,29.97,SW,227,0.0,0.0,96,0.00,,,0.00,Wunderground v.1.15,2013-03-12 17:43:00,
2013-03-13 04:48:00,58.4,57.3,29.96,SW,227,0.0,0.0,96,0.00,,,0.00,Wunderground v.1.15,2013-03-12 17:48:00,
2013-03-13 04:53:00,58.2,57.1,29.96,SW,227,0.0,0.0,96,0.00,,,0.00,Wunderground v.1.15,2013-03-12 17:53:00,
2013-03-13 04:58:00,58.1,57.0,29.96,SW,227,0.0,0.0,96,0.00,,,0.00,Wunderground v.1.15,2013-03-12 17:58:00,
2013-03-13 05:03:00,57.8,56.7,29.96,SW,227,0.0,0.0,96,0.00,,,0.00,Wunderground v.1.15,2013-03-12 18:03:00,
2013-03-13 05:08:00,57.7,56.6,29.96,SW,226,0.0,0.0,96,0.00,,,0.00,Wunderground v.1.15,2013-03-12 18:08:00,
2013-03-13 05:14:00,57.7,56.6,29.96,SW,227,0.0,0.0,96,0.00,,,0.00,Wunderground v.1.15,2013-03-12 18:14:00,
2013-03-13 05:19:00,57.8,56.7,29.96,SW,227,0.0,0.0,96,0.00,,,0.00,Wunderground v.1.15,2013-03-12 18:19:00,
2013-03-13 05:24:00,57.8,56.7,29.96,SW,227,0.0,0.0,96,0.00,,,0.00,Wunderground v.1.15,2013-03-12 18:24:00,
2013-03-13 05:29:00,57.7,56.6,29.96,SW,227,0.0,0.0,96,0.00,,,0.00,Wunderground v.1.15,2013-03-12 18:29:00,
2013-03-13 05:34:00,57.5,56.4,29.96,SW,227,0.0,0.0,96,0.00,,,0.00,Wunderground v.1.15,2013-03-12 18:34:00,
2013-03-13 05:39:00,57.5,56.4,29.96,SW,227,0.0,0.0,96,0.00,,,0.00,Wunderground v.1.15,2013-03-12 18:39:00,
2013-03-13 05:44:00,57.6,56.5,29.96,SW,227,0.0,0.0,96,0.00,,,0.00,Wunderground v.1.15,2013-03-12 18:44:00,
2013-03-13 05:49:00,57.5,56.4,29.96,SW,226,0.0,0.0,96,0.00,,,0.00,Wunderground v.1.15,2013-03-12 18:49:00,
2013-03-13 05:54:00,57.6,56.5,29.96,SW,227,0.0,0.0,96,0.00,,,0.00,Wunderground v.1.15,2013-03-12 18:54:00,
2013-03-13 05:59:00,57.4,56.3,29.96,SW,227,0.0,0.0,96,0.00,,,0.00,Wunderground v.1.15,2013-03-12 18:59:00,
2013-03-13 06:04:00,57.3,56.2,29.96,SW,226,0.0,0.0,96,0.00,,,0.00,Wunderground v.1.15,2013-03-12 19:04:00,
2013-03-13 06:09:00,57.1,56.0,29.96,SW,227,0.0,0.0,96,0.00,,,0.00,Wunderground v.1.15,2013-03-12 19:09:00,
2013-03-13 06:14:00,57.0,55.9,29.96,SW,227,0.0,0.0,96,0.00,,,0.00,Wunderground v.1.15,2013-03-12 19:14:00,
2013-03-13 06:19:00,57.0,55.9,29.96,SW,226,0.0,0.0,96,0.00,,,0.00,Wunderground v.1.15,2013-03-12 19:19:00,
2013-03-13 06:24:00,57.0,56.2,29.96,SW,227,0.0,0.0,97,0.00,,,0.00,Wunderground v.1.15,2013-03-12 19:24:00,
2013-03-13 06:29:00,56.8,55.7,29.96,SW,227,0.0,0.0,96,0.00,,,0.00,Wunderground v.1.15,2013-03-12 19:29:00,
2013-03-13 06:34:00,56.8,56.0,29.96,SW,227,0.0,0.0,97,0.00,,,0.00,Wunderground v.1.15,2013-03-12 19:34:00,
2013-03-13 06:39:00,56.7,55.9,29.96,SW,227,0.0,0.0,97,0.00,,,0.00,Wunderground v.1.15,2013-03-12 19:39:00,
2013-03-13 06:44:00,56.4,55.3,29.96,SW,227,0.0,0.0,96,0.00,,,0.00,Wunderground v.1.15,2013-03-12 19:44:00,
2013-03-13 06:49:00,56.3,55.2,29.96,SW,226,0.0,0.0,96,0.00,,,0.00,Wunderground v.1.15,2013-03-12 19:49:00,
2013-03-13 06:54:00,56.1,55.0,29.96,SW,227,0.0,0.0,96,0.00,,,0.00,Wunderground v.1.15,2013-03-12 19:54:00,
2013-03-13 06:59:00,55.9,54.8,29.96,SW,227,0.0,0.0,96,0.00,,,0.00,Wunderground v.1.15,2013-03-12 19:59:00,
2013-03-13 07:04:00,55.8,54.7,29.96,SW,227,0.0,0.0,96,0.00,,,0.00,Wunderground v.1.15,2013-03-12 20:04:00,
2013-03-13 07:09:00,56.1,55.3,29.96,SW,227,0.0,0.0,97,0.00,,,0.00,Wunderground v.1.15,2013-03-12 20:09:00,
2013-03-13 07:15:00,56.2,55.4,29.96,SW,227,0.0,0.0,97,0.00,,,0.00,Wunderground v.1.15,2013-03-12 20:15:00,
2013-03-13 07:20:00,56.6,55.8,29.97,SW,227,0.0,0.0,97,0.00,,,0.00,Wunderground v.1.15,2013-03-12 20:20:00,
2013-03-13 07:25:00,57.8,57.0,29.96,SW,227,0.0,0.0,97,0.00,,,0.00,Wunderground v.1.15,2013-03-12 20:25:00,
2013-03-13 07:30:00,60.1,59.5,29.97,SW,226,0.0,0.0,98,0.00,,,0.00,Wunderground v.1.15,2013-03-12 20:30:00,
2013-03-13 07:35:00,60.1,59.5,29.97,SW,227,0.0,0.0,98,0.00,,,0.00,Wunderground v.1.15,2013-03-12 20:35:00,
2013-03-13 07:40:00,61.1,60.5,29.97,SW,226,0.0,0.0,98,0.00,,,0.00,Wunderground v.1.15,2013-03-12 20:40:00,
2013-03-13 07:45:00,61.8,61.2,29.97,SW,227,0.0,0.0,98,0.00,,,0.00,Wunderground v.1.15,2013-03-12 20:45:00,
2013-03-13 07:50:00,62.5,61.9,29.97,SW,227,0.0,0.0,98,0.00,,,0.00,Wunderground v.1.15,2013-03-12 20:50:00,
2013-03-13 07:55:00,63.4,62.8,29.97,SW,227,0.0,0.0,98,0.00,,,0.00,Wunderground v.1.15,2013-03-12 20:55:00,
2013-03-13 08:00:00,62.9,62.0,29.97,WSW,251,0.0,0.0,97,0.00,,,0.00,Wunderground v.1.15,2013-03-12 21:00:00,
2013-03-13 08:05:00,63.0,61.8,29.97,SW,214,0.0,1.0,96,0.00,,,0.00,Wunderground v.1.15,2013-03-12 21:05:00,
2013-03-13 08:10:00,63.2,61.4,29.97,SSW,202,0.0,0.0,94,0.00,,,0.00,Wunderground v.1.15,2013-03-12 21:10:00,
2013-03-13 08:15:00,63.7,61.6,29.97,SSW,198,0.0,1.0,93,0.00,,,0.00,Wunderground v.1.15,2013-03-12 21:15:00,
2013-03-13 08:20:00,64.6,62.2,29.97,SW,233,0.0,0.0,92,0.00,,,0.00,Wunderground v.1.15,2013-03-12 21:20:00,
2013-03-13 08:25:00,65.6,62.3,29.97,South,188,1.0,1.0,89,0.00,,,0.00,Wunderground v.1.15,2013-03-12 21:25:00,
2013-03-13 08:30:00,66.4,62.7,29.97,SSW,195,0.0,0.0,88,0.00,,,0.00,Wunderground v.1.15,2013-03-12 21:30:00,
2013-03-13 08:35:00,67.9,63.6,29.97,East,92,0.0,0.0,86,0.00,,,0.00,Wunderground v.1.15,2013-03-12 21:35:00,
2013-03-13 08:41:00,65.7,62.4,29.97,South,180,0.0,1.0,89,0.00,,,-99.99,WeatherLink 5.9.3,2013-03-12 21:41:00,
2013-03-13 08:46:00,69.5,63.8,29.98,SSE,159,0.0,1.0,82,0.00,,,0.00,Wunderground v.1.15,2013-03-12 21:46:00,
2013-03-13 08:51:00,69.9,63.8,29.98,East,79,0.0,1.0,81,0.00,,,0.00,Wunderground v.1.15,2013-03-12 21:51:00,
2013-03-13 08:56:00,70.3,64.2,29.98,ENE,72,0.0,1.0,81,0.00,,,0.00,Wunderground v.1.15,2013-03-12 21:56:00,
2013-03-13 09:01:00,70.9,64.1,29.98,ENE,62,0.0,0.0,79,0.00,,,0.00,Wunderground v.1.15,2013-03-12 22:01:00,
2013-03-13 09:06:00,71.2,64.4,29.98,ENE,68,1.0,2.0,79,0.00,,,0.00,Wunderground v.1.15,2013-03-12 22:06:00,
2013-03-13 09:11:00,70.9,64.1,29.98,SE,135,0.0,1.0,79,0.00,,,-99.99,WeatherLink 5.9.3,2013-03-12 22:11:00,
2013-03-13 09:17:00,72.4,65.2,29.98,ENE,77,1.0,2.0,78,0.00,,,0.00,Wunderground v.1.15,2013-03-12 22:17:00,
2013-03-13 09:22:00,72.9,65.3,29.97,NNW,339,0.0,1.0,77,0.00,,,0.00,Wunderground v.1.15,2013-03-12 22:22:00,
2013-03-13 09:27:00,73.3,64.9,29.97,NE,39,1.0,2.0,75,0.00,,,0.00,Wunderground v.1.15,2013-03-12 22:27:00,
2013-03-13 09:32:00,73.6,65.6,29.97,ENE,69,0.0,1.0,76,0.00,,,0.00,Wunderground v.1.15,2013-03-12 22:32:00,
2013-03-13 09:37:00,74.1,65.3,29.97,NE,44,2.0,2.0,74,0.00,,,0.00,Wunderground v.1.15,2013-03-12 22:37:00,
2013-03-13 09:42:00,74.1,64.9,29.97,West,281,3.0,3.0,73,0.00,,,0.00,Wunderground v.1.15,2013-03-12 22:42:00,
2013-03-13 09:47:00,74.1,65.7,29.97,NW,305,1.0,3.0,75,0.00,,,0.00,Wunderground v.1.15,2013-03-12 22:47:00,
2013-03-13 09:52:00,74.9,66.1,29.97,NE,55,1.0,1.0,74,0.00,,,0.00,Wunderground v.1.15,2013-03-12 22:52:00,
2013-03-13 09:57:00,75.6,65.9,29.97,NNE,15,0.0,2.0,72,0.00,,,0.00,Wunderground v.1.15,2013-03-12 22:57:00,
2013-03-13 10:02:00,75.9,65.4,29.97,NNE,30,1.0,1.0,70,0.00,,,0.00,Wunderground v.1.15,2013-03-12 23:02:00,
2013-03-13 10:07:00,76.0,65.9,29.97,NW,312,1.0,3.0,71,0.00,,,0.00,Wunderground v.1.15,2013-03-12 23:07:00,
2013-03-13 10:12:00,76.2,65.7,29.97,WNW,293,0.0,2.0,70,0.00,,,0.00,Wunderground v.1.15,2013-03-12 23:12:00,
2013-03-13 10:17:00,76.4,65.9,29.97,WNW,287,0.0,3.0,70,0.00,,,0.00,Wunderground v.1.15,2013-03-12 23:17:00,
2013-03-13 10:22:00,76.4,66.7,29.97,West,279,0.0,2.0,72,0.00,,,0.00,Wunderground v.1.15,2013-03-12 23:22:00,
2013-03-13 10:27:00,76.8,65.4,29.97,East,84,1.0,5.0,68,0.00,,,0.00,Wunderground v.1.15,2013-03-12 23:27:00,
2013-03-13 10:32:00,76.7,65.8,29.97,West,280,3.0,3.0,69,0.00,,,0.00,Wunderground v.1.15,2013-03-12 23:32:00,
2013-03-13 10:37:00,77.1,66.6,29.97,NNE,23,0.0,3.0,70,0.00,,,0.00,Wunderground v.1.15,2013-03-12 23:37:00,
2013-03-13 10:42:00,77.1,65.3,29.97,NE,34,1.0,3.0,67,0.00,,,0.00,Wunderground v.1.15,2013-03-12 23:42:00,
2013-03-13 10:47:00,77.6,66.2,29.97,NW,319,1.0,3.0,68,0.00,,,0.00,Wunderground v.1.15,2013-03-12 23:47:00,
2013-03-13 10:52:00,77.9,64.3,29.97,NW,307,0.0,1.0,63,0.00,,,0.00,Wunderground v.1.15,2013-03-12 23:52:00,
2013-03-13 10:57:00,78.3,65.1,29.96,SSE,166,1.0,3.0,64,0.00,,,0.00,Wunderground v.1.15,2013-03-12 23:57:00,
2013-03-13 11:03:00,78.4,64.8,29.96,North,7,1.0,2.0,63,0.00,,,0.00,Wunderground v.1.15,2013-03-13 00:03:00,
2013-03-13 11:08:00,79.2,65.1,29.96,NNE,23,3.0,4.0,62,0.00,,,0.00,Wunderground v.1.15,2013-03-13 00:08:00,
2013-03-13 11:13:00,79.0,63.0,29.96,NNE,30,0.0,5.0,58,0.00,,,0.00,Wunderground v.1.15,2013-03-13 00:13:00,
2013-03-13 11:18:00,79.8,63.7,29.96,West,273,1.0,5.0,58,0.00,,,0.00,Wunderground v.1.15,2013-03-13 00:18:00,
2013-03-13 11:23:00,80.3,65.1,29.95,NNE,14,1.0,2.0,60,0.00,,,0.00,Wunderground v.1.15,2013-03-13 00:23:00,
2013-03-13 11:28:00,79.8,61.7,29.95,NE,42,4.0,5.0,54,0.00,,,0.00,Wunderground v.1.15,2013-03-13 00:28:00,
2013-03-13 11:33:00,79.6,62.5,29.95,NE,38,1.0,3.0,56,0.00,,,0.00,Wunderground v.1.15,2013-03-13 00:33:00,
2013-03-13 11:38:00,79.8,62.7,29.95,NE,47,1.0,5.0,56,0.00,,,0.00,Wunderground v.1.15,2013-03-13 00:38:00,
2013-03-13 11:43:00,79.8,62.2,29.95,NE,38,0.0,4.0,55,0.00,,,0.00,Wunderground v.1.15,2013-03-13 00:43:00,
2013-03-13 11:48:00,80.1,61.4,29.94,NNE,32,2.0,4.0,53,0.00,,,0.00,Wunderground v.1.15,2013-03-13 00:48:00,
2013-03-13 11:53:00,80.1,62.5,29.94,NW,319,2.0,3.0,55,0.00,,,0.00,Wunderground v.1.15,2013-03-13 00:53:00,
2013-03-13 11:58:00,80.4,62.8,29.94,WSW,257,2.0,3.0,55,0.00,,,0.00,Wunderground v.1.15,2013-03-13 00:58:00,
2013-03-13 12:03:00,80.4,61.7,29.93,NNW,329,0.0,4.0,53,0.00,,,0.00,Wunderground v.1.15,2013-03-13 01:03:00,
2013-03-13 12:08:00,80.8,62.1,29.93,NE,37,1.0,4.0,53,0.00,,,0.00,Wunderground v.1.15,2013-03-13 01:08:00,
2013-03-13 12:13:00,80.5,62.8,29.93,ENE,62,1.0,2.0,55,0.00,,,0.00,Wunderground v.1.15,2013-03-13 01:13:00,
2013-03-13 12:18:00,80.8,64.1,29.92,ESE,103,2.0,6.0,57,0.00,,,0.00,Wunderground v.1.15,2013-03-13 01:18:00,
2013-03-13 12:23:00,81.0,62.3,29.92,NE,53,5.0,8.0,53,0.00,,,0.00,Wunderground v.1.15,2013-03-13 01:23:00,
2013-03-13 12:28:00,80.2,60.4,29.92,NE,41,2.0,8.0,51,0.00,,,0.00,Wunderground v.1.15,2013-03-13 01:28:00,
2013-03-13 12:33:00,79.6,60.4,29.92,NE,37,1.0,3.0,52,0.00,,,0.00,Wunderground v.1.15,2013-03-13 01:33:00,
2013-03-13 12:38:00,79.8,60.6,29.92,NNE,33,0.0,4.0,52,0.00,,,0.00,Wunderground v.1.15,2013-03-13 01:38:00,
2013-03-13 12:43:00,80.5,63.4,29.92,NNE,30,1.0,2.0,56,0.00,,,0.00,Wunderground v.1.15,2013-03-13 01:43:00,
2013-03-13 12:48:00,80.7,63.0,29.92,NNE,23,0.0,4.0,55,0.00,,,0.00,Wunderground v.1.15,2013-03-13 01:48:00,
2013-03-13 12:53:00,81.0,63.3,29.91,ENE,69,0.0,1.0,55,0.00,,,0.00,Wunderground v.1.15,2013-03-13 01:53:00,
2013-03-13 12:58:00,81.1,60.7,29.91,NW,322,1.0,1.0,50,0.00,,,0.00,Wunderground v.1.15,2013-03-13 01:58:00,
2013-03-13 13:03:00,81.3,62.5,29.91,ENE,73,1.0,3.0,53,0.00,,,0.00,Wunderground v.1.15,2013-03-13 02:03:00,
2013-03-13 13:08:00,81.3,62.0,29.91,WSW,249,1.0,3.0,52,0.00,,,0.00,Wunderground v.1.15,2013-03-13 02:08:00,
2013-03-13 13:13:00,81.3,62.5,29.91,NE,44,0.0,1.0,53,0.00,,,0.00,Wunderground v.1.15,2013-03-13 02:13:00,
2013-03-13 13:18:00,80.8,63.6,29.91,East,86,3.0,4.0,56,0.00,,,0.00,Wunderground v.1.15,2013-03-13 02:18:00,
2013-03-13 13:23:00,80.6,62.4,29.91,SE,135,0.0,3.0,54,0.00,,,0.00,Wunderground v.1.15,2013-03-13 02:23:00,
2013-03-13 13:28:00,80.8,63.6,29.90,ENE,64,1.0,3.0,56,0.00,,,0.00,Wunderground v.1.15,2013-03-13 02:28:00,
2013-03-13 13:33:00,80.9,65.2,29.90,SSE,163,0.0,2.0,59,0.00,,,0.00,Wunderground v.1.15,2013-03-13 02:33:00,
2013-03-13 13:38:00,81.3,63.1,29.89,NNE,32,1.0,5.0,54,0.00,,,0.00,Wunderground v.1.15,2013-03-13 02:38:00,
2013-03-13 13:43:00,81.7,62.9,29.89,SW,220,1.0,4.0,53,0.00,,,0.00,Wunderground v.1.15,2013-03-13 02:43:00,
2013-03-13 13:48:00,81.6,61.7,29.89,ENE,68,2.0,7.0,51,0.00,,,0.00,Wunderground v.1.15,2013-03-13 02:48:00,
2013-03-13 13:53:00,81.1,62.3,29.89,NE,54,3.0,4.0,53,0.00,,,0.00,Wunderground v.1.15,2013-03-13 02:53:00,
2013-03-13 13:58:00,81.8,63.5,29.89,East,94,1.0,4.0,54,0.00,,,0.00,Wunderground v.1.15,2013-03-13 02:58:00,
2013-03-13 14:03:00,82.4,61.9,29.88,ESE,120,0.0,4.0,50,0.00,,,0.00,Wunderground v.1.15,2013-03-13 03:03:00,
2013-03-13 14:09:00,82.5,62.5,29.88,South,183,3.0,4.0,51,0.00,,,0.00,Wunderground v.1.15,2013-03-13 03:09:00,
2013-03-13 14:13:00,82.7,62.7,29.88,East,79,0.0,4.0,51,0.00,,,0.00,Wunderground v.1.15,2013-03-13 03:13:00,
2013-03-13 14:18:00,82.4,62.5,29.88,NE,46,4.0,5.0,51,0.00,,,0.00,Wunderground v.1.15,2013-03-13 03:18:00,
2013-03-13 14:23:00,82.6,62.6,29.87,East,91,1.0,4.0,51,0.00,,,0.00,Wunderground v.1.15,2013-03-13 03:23:00,
2013-03-13 14:29:00,83.1,62.5,29.87,NE,46,1.0,4.0,50,0.00,,,0.00,Wunderground v.1.15,2013-03-13 03:29:00,
2013-03-13 14:34:00,83.2,62.1,29.86,NW,319,1.0,4.0,49,0.00,,,0.00,Wunderground v.1.15,2013-03-13 03:34:00,
2013-03-13 14:39:00,82.9,62.4,29.86,NE,38,2.0,8.0,50,0.00,,,0.00,Wunderground v.1.15,2013-03-13 03:39:00,
2013-03-13 14:43:00,82.5,62.0,29.86,NE,42,4.0,7.0,50,0.00,,,0.00,Wunderground v.1.15,2013-03-13 03:43:00,
2013-03-13 14:49:00,82.2,61.1,29.86,ENE,65,5.0,7.0,49,0.00,,,0.00,Wunderground v.1.15,2013-03-13 03:49:00,
2013-03-13 14:53:00,82.4,61.9,29.86,NNW,328,0.0,3.0,50,0.00,,,0.00,Wunderground v.1.15,2013-03-13 03:53:00,
2013-03-13 14:59:00,82.8,62.8,29.85,ENE,75,4.0,4.0,51,0.00,,,0.00,Wunderground v.1.15,2013-03-13 03:59:00,
2013-03-13 15:00:00,82.9,62.4,29.85,NE,43,5.0,6.0,50,0.00,,,0.00,Wunderground v.1.15,2013-03-13 04:00:00,
2013-03-13 15:05:00,82.9,62.4,29.85,NE,38,4.0,5.0,50,0.00,,,0.00,Wunderground v.1.15,2013-03-13 04:05:00,
2013-03-13 15:10:00,82.1,61.6,29.86,ENE,67,3.0,6.0,50,0.00,,,-99.99,WeatherLink 5.9.3,2013-03-13 04:10:00,
2013-03-13 15:15:00,82.5,60.8,29.85,NE,47,6.0,9.0,48,0.00,,,0.00,Wunderground v.1.15,2013-03-13 04:15:00,
2013-03-13 15:21:00,82.6,62.1,29.85,ENE,67,2.0,4.0,50,0.00,,,-99.99,WeatherLink 5.9.3,2013-03-13 04:21:00,
2013-03-13 15:26:00,82.3,61.2,29.84,NE,38,3.0,7.0,49,0.00,,,0.00,Wunderground v.1.15,2013-03-13 04:26:00,
2013-03-13 15:31:00,82.2,60.6,29.85,NE,45,3.0,7.0,48,0.00,,,-99.99,WeatherLink 5.9.3,2013-03-13 04:31:00,
2013-03-13 15:36:00,82.9,61.2,29.84,ESE,113,1.0,6.0,48,0.00,,,0.00,Wunderground v.1.15,2013-03-13 04:36:00,
2013-03-13 15:41:00,82.8,61.1,29.84,ENE,67,2.0,6.0,48,0.00,,,-99.99,WeatherLink 5.9.3,2013-03-13 04:41:00,
2013-03-13 15:47:00,83.3,62.1,29.83,NE,37,0.0,2.0,49,0.00,,,0.00,Wunderground v.1.15,2013-03-13 04:47:00,
2013-03-13 15:51:00,83.6,60.6,29.83,East,87,1.0,3.0,46,0.00,,,0.00,Wunderground v.1.15,2013-03-13 04:51:00,
2013-03-13 15:57:00,83.5,61.7,29.83,East,79,5.0,8.0,48,0.00,,,0.00,Wunderground v.1.15,2013-03-13 04:57:00,
2013-03-13 16:02:00,83.6,61.8,29.83,NNE,25,0.0,2.0,48,0.00,,,0.00,Wunderground v.1.15,2013-03-13 05:02:00,
2013-03-13 16:07:00,83.6,61.8,29.83,South,174,1.0,3.0,48,0.00,,,0.00,Wunderground v.1.15,2013-03-13 05:07:00,
2013-03-13 16:12:00,83.9,62.1,29.82,NE,55,2.0,3.0,48,0.00,,,0.00,Wunderground v.1.15,2013-03-13 05:12:00,
2013-03-13 16:17:00,83.8,62.6,29.82,NNE,21,0.0,5.0,49,0.00,,,0.00,Wunderground v.1.15,2013-03-13 05:17:00,
2013-03-13 16:22:00,83.2,60.9,29.82,ENE,60,1.0,2.0,47,0.00,,,0.00,Wunderground v.1.15,2013-03-13 05:22:00,
2013-03-13 16:27:00,82.7,62.2,29.83,East,92,1.0,6.0,50,0.00,,,0.00,Wunderground v.1.15,2013-03-13 05:27:00,
2013-03-13 16:32:00,83.1,62.5,29.82,ENE,78,3.0,3.0,50,0.00,,,0.00,Wunderground v.1.15,2013-03-13 05:32:00,
2013-03-13 16:37:00,83.3,62.7,29.82,NE,53,2.0,5.0,50,0.00,,,0.00,Wunderground v.1.15,2013-03-13 05:37:00,
2013-03-13 16:42:00,82.6,61.5,29.83,NE,44,6.0,7.0,49,0.00,,,0.00,Wunderground v.1.15,2013-03-13 05:42:00,
2013-03-13 16:47:00,81.6,62.3,29.83,ENE,72,2.0,7.0,52,0.00,,,0.00,Wunderground v.1.15,2013-03-13 05:47:00,
2013-03-13 16:52:00,81.3,62.0,29.82,ENE,68,3.0,5.0,52,0.00,,,0.00,Wunderground v.1.15,2013-03-13 05:52:00,
2013-03-13 16:57:00,81.0,62.3,29.82,NNE,27,3.0,5.0,53,0.00,,,0.00,Wunderground v.1.15,2013-03-13 05:57:00,
2013-03-13 17:02:00,80.8,62.6,29.82,East,84,3.0,5.0,54,0.00,,,0.00,Wunderground v.1.15,2013-03-13 06:02:00,
2013-03-13 17:07:00,80.6,62.4,29.83,ENE,69,3.0,7.0,54,0.00,,,0.00,Wunderground v.1.15,2013-03-13 06:07:00,
2013-03-13 17:12:00,80.4,62.2,29.83,ENE,66,3.0,4.0,54,0.00,,,0.00,Wunderground v.1.15,2013-03-13 06:12:00,
2013-03-13 17:17:00,80.0,61.9,29.83,NE,52,4.0,4.0,54,0.00,,,0.00,Wunderground v.1.15,2013-03-13 06:17:00,
2013-03-13 17:22:00,79.7,62.1,29.83,NE,38,1.0,2.0,55,0.00,,,0.00,Wunderground v.1.15,2013-03-13 06:22:00,
2013-03-13 17:27:00,79.7,62.1,29.83,NNE,32,2.0,3.0,55,0.00,,,0.00,Wunderground v.1.15,2013-03-13 06:27:00,
2013-03-13 17:32:00,79.9,62.3,29.83,ENE,73,0.0,3.0,55,0.00,,,0.00,Wunderground v.1.15,2013-03-13 06:32:00,
2013-03-13 17:37:00,80.1,62.5,29.83,ESE,122,5.0,5.0,55,0.00,,,0.00,Wunderground v.1.15,2013-03-13 06:37:00,
2013-03-13 17:42:00,80.1,61.4,29.83,ENE,60,3.0,6.0,53,0.00,,,0.00,Wunderground v.1.15,2013-03-13 06:42:00,
2013-03-13 17:48:00,80.1,62.0,29.83,East,91,3.0,6.0,54,0.00,,,0.00,Wunderground v.1.15,2013-03-13 06:48:00,
2013-03-13 17:53:00,80.1,61.4,29.82,ENE,63,1.0,5.0,53,0.00,,,0.00,Wunderground v.1.15,2013-03-13 06:53:00,
2013-03-13 17:58:00,80.1,62.0,29.83,NE,56,3.0,5.0,54,0.00,,,0.00,Wunderground v.1.15,2013-03-13 06:58:00,
2013-03-13 18:03:00,80.1,62.0,29.83,NE,36,5.0,6.0,54,0.00,,,0.00,Wunderground v.1.15,2013-03-13 07:03:00,
2013-03-13 18:08:00,79.9,63.3,29.83,NE,43,5.0,6.0,57,0.00,,,0.00,Wunderground v.1.15,2013-03-13 07:08:00,
2013-03-13 18:13:00,79.7,64.1,29.83,ENE,64,3.0,5.0,59,0.00,,,0.00,Wunderground v.1.15,2013-03-13 07:13:00,
2013-03-13 18:18:00,79.4,63.8,29.83,NE,41,1.0,5.0,59,0.00,,,0.00,Wunderground v.1.15,2013-03-13 07:18:00,
2013-03-13 18:23:00,79.2,63.6,29.83,NE,45,3.0,5.0,59,0.00,,,0.00,Wunderground v.1.15,2013-03-13 07:23:00,
2013-03-13 18:28:00,78.9,64.3,29.83,NE,55,4.0,5.0,61,0.00,,,0.00,Wunderground v.1.15,2013-03-13 07:28:00,
2013-03-13 18:33:00,78.4,64.8,29.83,ESE,118,4.0,6.0,63,0.00,,,0.00,Wunderground v.1.15,2013-03-13 07:33:00,
2013-03-13 18:38:00,77.8,64.6,29.82,ENE,62,0.0,6.0,64,0.00,,,0.00,Wunderground v.1.15,2013-03-13 07:38:00,
2013-03-13 18:43:00,77.4,65.1,29.82,NNE,27,1.0,3.0,66,0.00,,,0.00,Wunderground v.1.15,2013-03-13 07:43:00,
2013-03-13 18:48:00,77.0,65.2,29.82,NE,46,1.0,3.0,67,0.00,,,0.00,Wunderground v.1.15,2013-03-13 07:48:00,
2013-03-13 18:53:00,76.4,65.1,29.82,ENE,65,4.0,4.0,68,0.00,,,0.00,Wunderground v.1.15,2013-03-13 07:53:00,
2013-03-13 18:58:00,76.0,65.1,29.82,East,97,3.0,6.0,69,0.00,,,0.00,Wunderground v.1.15,2013-03-13 07:58:00,
2013-03-13 19:03:00,75.5,65.0,29.82,ENE,57,3.0,3.0,70,0.00,,,0.00,Wunderground v.1.15,2013-03-13 08:03:00,
2013-03-13 19:09:00,75.1,64.6,29.82,NE,34,2.0,3.0,70,0.00,,,0.00,Wunderground v.1.15,2013-03-13 08:09:00,
2013-03-13 19:14:00,74.8,64.8,29.82,NE,41,0.0,2.0,71,0.00,,,0.00,Wunderground v.1.15,2013-03-13 08:14:00,
2013-03-13 19:19:00,74.4,64.8,29.83,NE,38,0.0,2.0,72,0.00,,,0.00,Wunderground v.1.15,2013-03-13 08:19:00,
2013-03-13 19:24:00,74.0,64.8,29.83,NE,53,0.0,2.0,73,0.00,,,0.00,Wunderground v.1.15,2013-03-13 08:24:00,
2013-03-13 19:29:00,73.7,64.9,29.83,NNE,29,1.0,5.0,74,0.00,,,0.00,Wunderground v.1.15,2013-03-13 08:29:00,
2013-03-13 19:34:00,73.4,65.0,29.83,East,86,4.0,6.0,75,0.00,,,0.00,Wunderground v.1.15,2013-03-13 08:34:00,
2013-03-13 19:39:00,73.2,64.8,29.83,NNE,29,1.0,6.0,75,0.00,,,0.00,Wunderground v.1.15,2013-03-13 08:39:00,
2013-03-13 19:44:00,73.0,65.0,29.83,ENE,77,3.0,3.0,76,0.00,,,0.00,Wunderground v.1.15,2013-03-13 08:44:00,
2013-03-13 19:49:00,72.8,64.8,29.83,NE,48,0.0,6.0,76,0.00,,,0.00,Wunderground v.1.15,2013-03-13 08:49:00,
2013-03-13 19:54:00,72.6,65.0,29.83,ENE,63,0.0,3.0,77,0.00,,,0.00,Wunderground v.1.15,2013-03-13 08:54:00,
2013-03-13 19:59:00,72.4,64.8,29.83,East,83,0.0,3.0,77,0.00,,,0.00,Wunderground v.1.15,2013-03-13 08:59:00,
2013-03-13 20:04:00,72.2,65.0,29.83,NE,46,1.0,2.0,78,0.00,,,0.00,Wunderground v.1.15,2013-03-13 09:04:00,
2013-03-13 20:09:00,72.0,64.8,29.84,NE,48,0.0,2.0,78,0.00,,,0.00,Wunderground v.1.15,2013-03-13 09:09:00,
2013-03-13 20:14:00,71.7,64.8,29.84,NE,36,0.0,1.0,79,0.00,,,0.00,Wunderground v.1.15,2013-03-13 09:14:00,
2013-03-13 20:19:00,71.4,64.5,29.84,ESE,108,0.0,1.0,79,0.00,,,0.00,Wunderground v.1.15,2013-03-13 09:19:00,
2013-03-13 20:24:00,71.2,64.7,29.84,NE,44,0.0,1.0,80,0.00,,,0.00,Wunderground v.1.15,2013-03-13 09:24:00,
2013-03-13 20:29:00,70.9,64.4,29.84,NNW,342,0.0,1.0,80,0.00,,,0.00,Wunderground v.1.15,2013-03-13 09:29:00,
2013-03-13 20:34:00,70.5,64.4,29.84,NNW,342,0.0,0.0,81,0.00,,,0.00,Wunderground v.1.15,2013-03-13 09:34:00,
2013-03-13 20:39:00,70.0,64.2,29.84,NNW,342,0.0,0.0,82,0.00,,,0.00,Wunderground v.1.15,2013-03-13 09:39:00,
2013-03-13 20:44:00,69.7,64.3,29.85,NNW,342,0.0,0.0,83,0.00,,,0.00,Wunderground v.1.15,2013-03-13 09:44:00,
2013-03-13 20:49:00,69.5,64.5,29.85,NNW,342,0.0,0.0,84,0.00,,,0.00,Wunderground v.1.15,2013-03-13 09:49:00,
2013-03-13 20:54:00,69.3,64.3,29.85,NNW,342,0.0,0.0,84,0.00,,,0.00,Wunderground v.1.15,2013-03-13 09:54:00,
2013-03-13 20:59:00,69.1,64.1,29.86,NNW,342,0.0,0.0,84,0.00,,,0.00,Wunderground v.1.15,2013-03-13 09:59:00,
2013-03-13 21:04:00,68.8,63.8,29.86,NNW,342,0.0,0.0,84,0.00,,,0.00,Wunderground v.1.15,2013-03-13 10:04:00,
2013-03-13 21:09:00,68.5,63.8,29.86,NNW,342,0.0,0.0,85,0.00,,,0.00,Wunderground v.1.15,2013-03-13 10:09:00,
2013-03-13 21:15:00,68.1,63.8,29.86,NNW,342,0.0,0.0,86,0.00,,,0.00,Wunderground v.1.15,2013-03-13 10:15:00,
2013-03-13 21:20:00,67.9,63.6,29.86,NNW,342,0.0,0.0,86,0.00,,,0.00,Wunderground v.1.15,2013-03-13 10:20:00,
2013-03-13 21:25:00,67.6,63.3,29.86,NNW,342,0.0,0.0,86,0.00,,,0.00,Wunderground v.1.15,2013-03-13 10:25:00,
2013-03-13 21:30:00,67.3,63.3,29.86,NNW,342,0.0,0.0,87,0.00,,,0.00,Wunderground v.1.15,2013-03-13 10:30:00,
2013-03-13 21:35:00,66.9,62.9,29.86,NNW,342,0.0,0.0,87,0.00,,,0.00,Wunderground v.1.15,2013-03-13 10:35:00,
2013-03-13 21:40:00,66.9,62.9,29.86,North,-999,0.0,0.0,87,0.00,,,-99.99,WeatherLink 5.9.3,2013-03-13 10:40:00,
2013-03-13 21:45:00,66.4,62.7,29.86,NNW,342,0.0,0.0,88,0.00,,,0.00,Wunderground v.1.15,2013-03-13 10:45:00,
2013-03-13 21:50:00,66.2,62.9,29.86,NNW,342,0.0,0.0,89,0.00,,,0.00,Wunderground v.1.15,2013-03-13 10:50:00,
2013-03-13 21:55:00,66.0,62.7,29.86,NNW,342,0.0,0.0,89,0.00,,,0.00,Wunderground v.1.15,2013-03-13 10:55:00,
2013-03-13 22:00:00,66.2,62.9,29.86,North,-999,0.0,0.0,89,0.00,,,-99.99,WeatherLink 5.9.3,2013-03-13 11:00:00,
2013-03-13 22:05:00,65.7,62.7,29.86,NNW,342,0.0,0.0,90,0.00,,,0.00,Wunderground v.1.15,2013-03-13 11:05:00,
2013-03-13 22:10:00,65.8,62.8,29.86,North,-999,0.0,0.0,90,0.00,,,-99.99,WeatherLink 5.9.3,2013-03-13 11:10:00,
2013-03-13 22:15:00,65.3,62.6,29.86,NNW,342,0.0,0.0,91,0.00,,,0.00,Wunderground v.1.15,2013-03-13 11:15:00,
2013-03-13 22:20:00,65.2,62.5,29.86,NNW,342,0.0,0.0,91,0.00,,,0.00,Wunderground v.1.15,2013-03-13 11:20:00,
2013-03-13 22:25:00,65.0,62.3,29.85,NNW,342,0.0,0.0,91,0.00,,,0.00,Wunderground v.1.15,2013-03-13 11:25:00,
2013-03-13 22:30:00,64.8,62.1,29.86,NNW,342,0.0,0.0,91,0.00,,,0.00,Wunderground v.1.15,2013-03-13 11:30:00,
2013-03-13 22:35:00,64.7,62.0,29.86,NNW,342,0.0,0.0,91,0.00,,,0.00,Wunderground v.1.15,2013-03-13 11:35:00,
2013-03-13 22:40:00,64.6,61.9,29.85,NNW,342,0.0,0.0,91,0.00,,,0.00,Wunderground v.1.15,2013-03-13 11:40:00,
2013-03-13 22:45:00,64.5,62.1,29.86,NNW,342,0.0,0.0,92,0.00,,,0.00,Wunderground v.1.15,2013-03-13 11:45:00,
2013-03-13 22:50:00,64.3,61.9,29.85,NNW,342,0.0,0.0,92,0.00,,,0.00,Wunderground v.1.15,2013-03-13 11:50:00,
2013-03-13 22:55:00,64.1,61.7,29.85,NNW,342,0.0,0.0,92,0.00,,,0.00,Wunderground v.1.15,2013-03-13 11:55:00,
2013-03-13 23:01:00,63.8,61.4,29.85,NNW,342,0.0,0.0,92,0.00,,,0.00,Wunderground v.1.15,2013-03-13 12:01:00,
2013-03-13 23:06:00,63.5,61.1,29.85,NNW,342,0.0,0.0,92,0.00,,,0.00,Wunderground v.1.15,2013-03-13 12:06:00,
2013-03-13 23:11:00,63.4,61.0,29.85,NNW,342,0.0,0.0,92,0.00,,,0.00,Wunderground v.1.15,2013-03-13 12:11:00,
2013-03-13 23:16:00,63.4,61.3,29.85,NNW,342,0.0,0.0,93,0.00,,,0.00,Wunderground v.1.15,2013-03-13 12:16:00,
2013-03-13 23:21:00,63.2,61.1,29.85,NNW,342,0.0,0.0,93,0.00,,,0.00,Wunderground v.1.15,2013-03-13 12:21:00,
2013-03-13 23:26:00,63.2,61.1,29.84,NNW,342,0.0,0.0,93,0.00,,,0.00,Wunderground v.1.15,2013-03-13 12:26:00,
2013-03-13 23:31:00,63.1,61.0,29.84,NNW,342,0.0,0.0,93,0.00,,,0.00,Wunderground v.1.15,2013-03-13 12:31:00,
2013-03-13 23:36:00,62.9,60.8,29.84,NNW,342,0.0,0.0,93,0.00,,,0.00,Wunderground v.1.15,2013-03-13 12:36:00,
2013-03-13 23:41:00,62.8,60.7,29.84,NNW,342,0.0,0.0,93,0.00,,,0.00,Wunderground v.1.15,2013-03-13 12:41:00,
2013-03-13 23:46:00,62.8,60.7,29.84,NNW,342,0.0,0.0,93,0.00,,,0.00,Wunderground v.1.15,2013-03-13 12:46:00,
2013-03-13 23:51:00,62.8,60.7,29.84,NNW,342,0.0,0.0,93,0.00,,,0.00,Wunderground v.1.15,2013-03-13 12:51:00,
2013-03-13 23:56:00,62.6,60.5,29.84,NNW,342,0.0,0.0,93,0.00,,,0.00,Wunderground v.1.15,2013-03-13 12:56:00,